World > North America > United States > Pennsylvania

Hourly Cowans Gap, PA Regional Weather

Feedback E-mail the Weather

Quick WX

Cowans Gap, PA Weather Maps

°F °C°F °C
Cowans Gap Weather Map
UTC Time: 6/30/2022, 23:18
Your Time:

Cowans Gap, PA Regional Weather

Expires:202207010000;;463767
ASUS41 KCTP 302310
RWRCTP

REGIONAL WEATHER ROUNDUP
NATIONAL WEATHER SERVICE STATE COLLEGE PA
700 PM EDT THU JUN 30 2022

Note: "fair" indicates few or no clouds below 12,000 feet with no 
significant weather and/or obstructions to visibility.

* = STATION THAT DOES NOT REPORT PRECIPITATION /E.G. RAIN...SNOW...ETC/
    THUNDER OR FOG.


PAZ004>006-010>012-017>019-024>028-033>037-041-042-045-046-049>053-010000-
CENTRAL PENNSYLVANIA
  
CITY           SKY/WX    TMP DP  RH WIND       PRES   REMARKS
BRADFORD       SUNNY     81  52  36 SW6       30.15S                  
ST MARYS       CLOUDY    81  57  44 SW5       30.17F                  
DUBOIS         SUNNY     82  48  30 S7        30.14S                  
CLEARFIELD     SUNNY     84  55  36 MISG      30.13F                  
JOHNSTOWN      SUNNY     79  48  33 S8        30.18F                  
SOMERSET       FAIR      81  52  36 S9        30.19S                  
ALTOONA        SUNNY     82  54  37 S7        30.16F                  
STATE COLLEGE  SUNNY     82  55  39 SW9       30.14F                  
REEDSVILLE     FAIR      86  55  35 S8        30.13                   
WELLSBORO      FAIR      81  55  41 SW7G13    30.13S                  
WILLIAMSPORT   MOSUNNY   86  53  32 S10G20    30.07S                  
SELINSGROVE    SUNNY     85  56  37 S8        30.11F                  
FT INDIANTOWN  MOSUNNY   85  52  31 SW7       30.11S                  
CAPITAL CITY   SUNNY     89  56  32 SW7       30.12S                  
HARRISBURG     MOSUNNY   88  54  31 S6        30.11S                  
YORK           SUNNY     86  52  30 SW5       30.13S                  
$$


SKY/WX - Weather  TMP - Temperature  DP - Dew Point  RH - Humidity
WIND - Wind Direction/Speed PRES - Barometric Pressure VSB - Visibility
WCI - Wind Chill Index E13G22 Wind - East Wind 13 mph/Gusts of 22 mph

Trending Headlines

Cowans Gap Radar Loop



Cowans Gap Quick Facts


National Two Day Weather Forecast


E-mail the Cowans Gap Weather Forecast

Voice your opinion or tell us about page issues...